Indian Springs, NV

6:07 PM PDT on August 20, 2017 (GMT -0700)
Indian Springs Air Force Auxiliary

Weather History for KINS - March, 2012

Change the Weather History Date:

Saturday, March 17, 2012

  Actual Average (KDRA) Record (KDRA)
Temperature  
Mean Temperature 54 °F -  
Max Temperature 66 °F 68 °F 87 °F (2007)
Min Temperature 42 °F 41 °F 26 °F (2002)
Degree Days  
Heating Degree Days 11    
Growing Degree Days 4 (Base 50)    
Moisture  
Dew Point 34 °F    
Average Humidity 50    
Maximum Humidity 85    
Minimum Humidity 21    
Precipitation  
Precipitation 0.05 in - - ()
Sea Level Pressure  
Sea Level Pressure 29.44 in    
Wind  
Wind Speed 10 mph (SE)    
Max Wind Speed 22 mph    
Max Gust Speed 34 mph    
Visibility 9 miles    
Events Rain    
Averages and records for this station are not official NWS values.
T = Trace of Precipitation, MM = Missing Value Source: NWS Daily Summary

Daily Weather History Graph

Daily Weather History Graph

Search for Another Location

Airport or City:

Trip Planner

Search our weather history database for the weather conditions in past years. The results will help you decide how hot, cold, wet, or windy it might be!

Date:

Astronomy

Mar. 17, 2012 Rise Set
Actual Time 6:49 AM PDT 6:52 PM PDT
Civil Twilight 6:24 AM PDT 7:18 PM PDT
Nautical Twilight 5:54 AM PDT 7:48 PM PDT
Astronomical Twilight 5:23 AM PDT 8:18 PM PDT
Moon 3:47 AM PDT (3/17) 2:27 PM PDT (3/17)
Length of Visible Light 12h 54m
Length of Day
12h 02m
Waning Crescent, 22% of the Moon is Illuminated
Mar 17
Waning Crescent
Mar 22
New
Mar 30
First Quarter
Apr 6
Full
Apr 13
Last Quarter

Hourly Weather History & Observations

Time (PDT) Temp. Windchill Dew Point Humidity Pressure Visibility Wind Dir Wind Speed Gust Speed Precip Events Conditions
12:55 AM 63.3 °F - 25.2 °F 23% 29.53 in 10.0 mi East 13.8 mph - N/A   Overcast
1:55 AM 62.1 °F - 26.4 °F 26% 29.52 in 10.0 mi Calm Calm - N/A   Overcast
2:55 AM 62.6 °F - 25.5 °F 24% 29.50 in 10.0 mi NW 11.5 mph 25.3 mph N/A   Overcast
3:55 AM 61.5 °F - 27.1 °F 27% 29.50 in 10.0 mi East 16.1 mph 21.9 mph N/A   Overcast
4:55 AM 61.7 °F - 25.7 °F 25% 29.48 in 10.0 mi Variable 4.6 mph - N/A   Overcast
5:55 AM 59.7 °F - 27.9 °F 30% 29.46 in 10.0 mi East 9.2 mph - N/A   Mostly Cloudy
6:55 AM 57.6 °F - 32.7 °F 39% 29.49 in 10.0 mi ENE 6.9 mph - N/A   Partly Cloudy
7:55 AM 57.2 °F - 33.8 °F 41% 29.49 in 10.0 mi ESE 12.7 mph - N/A   Overcast
8:55 AM 58.5 °F - 33.6 °F 39% 29.47 in 10.0 mi ESE 17.3 mph - N/A   Mostly Cloudy
9:55 AM 59.5 °F - 32.2 °F 36% 29.45 in 10.0 mi SE 18.4 mph 23.0 mph N/A   Mostly Cloudy
10:55 AM 61.5 °F - 27.7 °F 28% 29.45 in 10.0 mi SSE 8.1 mph 32.2 mph N/A   Mostly Cloudy
11:55 AM 64.0 °F - 29.1 °F 27% 29.42 in 10.0 mi Variable 3.5 mph - N/A   Overcast
12:55 PM 65.7 °F - 24.8 °F 21% 29.39 in 10.0 mi South 16.1 mph 26.5 mph N/A   Mostly Cloudy
1:55 PM 61.3 °F - 30.7 °F 32% 29.39 in 10.0 mi SSE 17.3 mph 27.6 mph N/A   Mostly Cloudy
2:55 PM 57.6 °F - 34.0 °F 41% 29.40 in 10.0 mi South 9.2 mph - N/A   Mostly Cloudy
2:56 PM 57.2 °F - 33.8 °F 41% 29.40 in 10.0 mi South 10.4 mph - N/A   Light Drizzle
3:36 PM 50.0 °F - 42.8 °F 76% 29.45 in 7.0 mi WSW 18.4 mph - N/A Rain Rain
3:49 PM 50.0 °F - 42.8 °F 76% 29.45 in 9.0 mi SW 10.4 mph - N/A Rain Light Rain
4:16 PM 50.0 °F - 39.2 °F 66% 29.42 in 10.0 mi Calm Calm - N/A   Mostly Cloudy
4:24 PM 51.8 °F - 39.2 °F 62% 29.42 in 10.0 mi Calm Calm - N/A Rain Light Rain
4:55 PM 51.3 °F - 41.2 °F 68% 29.43 in 10.0 mi Calm Calm - 0.02 in Rain Light Rain
4:59 PM 51.8 °F - 41.0 °F 67% 29.43 in 9.0 mi SSE 5.8 mph - N/A Rain Light Rain
5:15 PM 50.0 °F - 41.0 °F 71% 29.42 in 6.0 mi Calm Calm - N/A Rain Light Rain
5:18 PM 50.0 °F - 41.0 °F 71% 29.42 in 6.0 mi South 4.6 mph - N/A Rain Light Rain
5:20 PM 50.0 °F - 42.8 °F 76% 29.42 in 6.0 mi Variable 3.5 mph - N/A Rain Light Rain
5:24 PM 50.0 °F - 41.0 °F 71% 29.42 in 7.0 mi SE 5.8 mph - N/A Rain Light Rain
5:46 PM 50.0 °F - 42.8 °F 76% 29.41 in 10.0 mi East 18.4 mph - N/A   Mostly Cloudy
5:55 PM 49.3 °F - 42.1 °F 76% 29.41 in 10.0 mi ESE 17.3 mph 27.6 mph 0.03 in   Overcast
6:55 PM 47.3 °F - 43.0 °F 85% 29.39 in 10.0 mi East 21.9 mph - N/A   Overcast
7:55 PM 48.2 °F - 40.1 °F 74% 29.41 in 10.0 mi Variable 6.9 mph - N/A   Overcast
8:55 PM 46.8 °F - 26.1 °F 44% 29.44 in 10.0 mi NNE 4.6 mph 23.0 mph N/A   Partly Cloudy
9:55 PM 44.1 °F 35.7 °F 23.9 °F 45% 29.44 in 10.0 mi SW 20.7 mph 28.8 mph N/A   Partly Cloudy
10:55 PM 43.2 °F 35.0 °F 22.6 °F 44% 29.42 in 10.0 mi WSW 18.4 mph 34.5 mph N/A   Partly Cloudy
11:55 PM 42.1 °F 33.6 °F 19.0 °F 40% 29.44 in 10.0 mi SW 18.4 mph 28.8 mph N/A   Scattered Clouds